User: anonymous   Login
Location: Theydon Bois
(51.6750°N, 0.1050°E)
Time: 23:19:59
(UTC+01:00)
Language:

GP-B - Orbit

View from above orbital plane
View from above orbital plane
View from above satellite
View from above satellite

Ground track
Ground track

The orbit data is extracted from the following two-line orbital elements,

1 28230U 04014A   18226.88973367  .00000102  00000-0  11717-4 0  9998
2 28230  89.8332 113.5586 0003405  89.6324 270.5289 14.78632129771701
Epoch (UTC): 14 August 2018 21:21:12
Eccentricity: 0.0003405
inclination: 89.8332°
perigee height: 631 km
apogee height: 636 km
right ascension of ascending node: 113.5586°
argument of perigee: 89.6324°
revolutions per day: 14.78632129
mean anomaly at epoch: 270.5289°
orbit number at epoch: 77170

The dashed part of the orbit path shows where the satellite is in the earth's shadow,  

DLR